| time (UTC) | temp F | wind direction | speed MPH | gust MPH | rain 1hr in | rain 24hr in | rain mn in | humidity % | barometer mb |
| 20260505101833 | 52 | 133 | 0.0 | 1.0 | 0.00 | 0.00 | 0.00 | 89 | 1007.0 |
| 20260505101328 | 52 | 133 | 1.0 | 1.0 | 0.00 | 0.00 | 0.00 | 89 | 1007.2 |
| 20260505100824 | 54 | 154 | 1.0 | 1.0 | 0.00 | 0.00 | 0.00 | 88 | 1007.2 |
| 20260505100321 | 55 | 154 | 1.0 | 1.0 | 0.00 | 0.00 | 0.00 | 79 | 1007.2 |
| 20260505095817 | 52 | 156 | 2.0 | 2.0 | 0.00 | 0.00 | 0.00 | 89 | 1006.9 |
| 20260505095315 | 51 | 156 | 1.0 | 1.0 | 0.00 | 0.00 | 0.00 | 93 | 1006.9 |
| 20260505094810 | 51 | 156 | 1.0 | 1.0 | 0.00 | 0.00 | 0.00 | 94 | 1007.0 |
| 20260505094308 | 51 | 156 | 0.0 | 0.0 | 0.00 | 0.00 | 0.00 | 95 | 1007.0 |
| 20260505093803 | 51 | 156 | 1.0 | 1.0 | 0.00 | 0.00 | 0.00 | 96 | 1007.2 |
| 20260505093301 | 51 | 156 | 0.0 | 0.0 | 0.00 | 0.00 | 0.00 | 95 | 1007.0 |
| 20260505092757 | 51 | 156 | 0.0 | 1.0 | 0.00 | 0.00 | 0.00 | 95 | 1006.8 |
| 20260505092256 | 52 | 157 | 0.0 | 0.0 | 0.00 | 0.00 | 0.00 | 93 | 1006.8 |
| 20260505091753 | 53 | 155 | 1.0 | 1.0 | 0.00 | 0.00 | 0.00 | 89 | 1006.9 |
| 20260505091251 | 55 | 167 | 1.0 | 1.0 | 0.00 | 0.00 | 0.00 | 81 | 1006.9 |
| 20260505090748 | 55 | 238 | 3.0 | 4.0 | 0.00 | 0.00 | 0.00 | 72 | 1007.0 |
| 20260505090246 | 54 | 212 | 0.0 | 0.0 | 0.00 | 0.00 | 0.00 | 73 | 1006.7 |
| 20260505085743 | 54 | 212 | 0.0 | 0.0 | 0.00 | 0.00 | 0.00 | 72 | 1006.7 |
| 20260505085241 | 54 | 212 | 2.0 | 2.0 | 0.00 | 0.00 | 0.00 | 72 | 1006.6 |
| 20260505084738 | 55 | 212 | 0.0 | 0.0 | 0.00 | 0.00 | 0.00 | 71 | 1006.3 |
| 20260505084238 | 55 | 212 | 0.0 | 1.0 | 0.00 | 0.00 | 0.00 | 69 | 1006.6 |
| 20260505083734 | 55 | 212 | 0.0 | 1.0 | 0.00 | 0.00 | 0.00 | 70 | 1006.5 |
| 20260505083231 | 56 | 212 | 2.0 | 2.0 | 0.00 | 0.00 | 0.00 | 68 | 1006.3 |
| 20260505082726 | 56 | 213 | 1.0 | 1.0 | 0.00 | 0.00 | 0.00 | 66 | 1006.6 |
| 20260505082224 | 55 | 213 | 1.0 | 1.0 | 0.00 | 0.00 | 0.00 | 67 | 1006.4 |
| 20260505081720 | 55 | 213 | 0.0 | 0.0 | 0.00 | 0.00 | 0.00 | 71 | 1006.6 |
| 20260505081217 | 56 | 213 | 0.0 | 0.0 | 0.00 | 0.00 | 0.00 | 68 | 1006.3 |
| 20260505080714 | 56 | 213 | 0.0 | 0.0 | 0.00 | 0.00 | 0.00 | 66 | 1006.5 |
| 20260505080210 | 56 | 121 | 1.0 | 1.0 | 0.00 | 0.00 | 0.00 | 67 | 1006.3 |
| 20260505075706 | 56 | 108 | 1.0 | 2.0 | 0.00 | 0.00 | 0.00 | 66 | 1006.4 |
| 20260505075203 | 56 | 183 | 0.0 | 1.0 | 0.00 | 0.00 | 0.00 | 66 | 1006.6 |
| 20260505074700 | 56 | 144 | 1.0 | 2.0 | 0.00 | 0.00 | 0.00 | 66 | 1006.4 |
| 20260505074157 | 56 | 52 | 1.0 | 2.0 | 0.00 | 0.00 | 0.00 | 65 | 1006.5 |
| 20260505073655 | 57 | 51 | 1.0 | 1.0 | 0.00 | 0.00 | 0.00 | 65 | 1006.6 |
| 20260505073153 | 56 | 22 | 0.0 | 1.0 | 0.00 | 0.00 | 0.00 | 66 | 1006.6 |
| 20260505072648 | 56 | 22 | 1.0 | 1.0 | 0.00 | 0.00 | 0.00 | 65 | 1006.4 |
| 20260505072145 | 56 | 22 | 0.0 | 0.0 | 0.00 | 0.00 | 0.00 | 66 | 1006.4 |
| 20260505071640 | 56 | 359 | 0.0 | 0.0 | 0.00 | 0.00 | 0.00 | 66 | 1006.7 |
| 20260505071138 | 56 | 359 | 1.0 | 1.0 | 0.00 | 0.00 | 0.00 | 65 | 1006.6 |
| 20260505070635 | 56 | 359 | 0.0 | 0.0 | 0.00 | 0.00 | 0.00 | 64 | 1006.5 |
| 20260505070132 | 57 | 358 | 0.0 | 0.0 | 0.00 | 0.00 | 0.00 | 64 | 1006.4 |
| 20260505065627 | 57 | 87 | 1.0 | 2.0 | 0.00 | 0.00 | 0.00 | 62 | 1006.1 |
| 20260505065124 | 56 | 220 | 0.0 | 1.0 | 0.00 | 0.00 | 0.00 | 62 | 1006.3 |
| 20260505064621 | 57 | 245 | 0.0 | 1.0 | 0.00 | 0.00 | 0.00 | 63 | 1006.5 |
| 20260505064120 | 57 | 332 | 2.0 | 2.0 | 0.00 | 0.00 | 0.00 | 61 | 1006.5 |
| 20260505063617 | 57 | 183 | 1.0 | 2.0 | 0.00 | 0.00 | 0.00 | 61 | 1006.4 |
| 20260505063113 | 58 | 266 | 3.0 | 4.0 | 0.00 | 0.00 | 0.00 | 59 | 1006.4 |
| 20260505062609 | 58 | 205 | 2.0 | 4.0 | 0.00 | 0.00 | 0.00 | 60 | 1006.6 |
| 20260505062107 | 58 | 76 | 2.0 | 2.0 | 0.00 | 0.00 | 0.00 | 60 | 1006.6 |
| 20260505061604 | 58 | 229 | 2.0 | 2.0 | 0.00 | 0.00 | 0.00 | 60 | 1006.5 |
| 20260505061102 | 57 | 225 | 4.0 | 4.0 | 0.00 | 0.00 | 0.00 | 59 | 1006.5 |
| 20260505060559 | 58 | 225 | 1.0 | 1.0 | 0.00 | 0.00 | 0.00 | 60 | 1006.6 |
| 20260505060056 | 58 | 207 | 2.0 | 2.0 | 0.00 | 0.00 | 0.00 | 60 | 1006.5 |
| 20260505055551 | 58 | 225 | 3.0 | 3.0 | 0.00 | 0.00 | 0.00 | 57 | 1006.6 |
| 20260505055048 | 58 | 204 | 3.0 | 4.0 | 0.00 | 0.00 | 0.00 | 58 | 1006.1 |
| 20260505054545 | 57 | 201 | 0.0 | 0.0 | 0.00 | 0.00 | 0.00 | 61 | 1006.6 |
| 20260505054043 | 57 | 155 | 0.0 | 1.0 | 0.00 | 0.00 | 0.00 | 61 | 1006.5 |
| 20260505053540 | 57 | 222 | 5.0 | 6.0 | 0.00 | 0.00 | 0.00 | 59 | 1006.6 |
| 20260505053037 | 57 | 220 | 0.0 | 1.0 | 0.00 | 0.00 | 0.00 | 60 | 1006.5 |
| 20260505052533 | 57 | 143 | 2.0 | 2.0 | 0.00 | 0.00 | 0.00 | 60 | 1006.6 |
| 20260505052031 | 58 | 204 | 0.0 | 0.0 | 0.00 | 0.00 | 0.00 | 60 | 1006.5 |
| 20260505051528 | 58 | 232 | 3.0 | 3.0 | 0.00 | 0.00 | 0.00 | 58 | 1006.9 |
| 20260505051026 | 58 | 352 | 3.0 | 3.0 | 0.00 | 0.00 | 0.00 | 57 | 1006.7 |
| 20260505050524 | 58 | 213 | 2.0 | 3.0 | 0.00 | 0.00 | 0.00 | 58 | 1006.6 |
| 20260505041451 | 58 | 174 | 1.0 | 1.0 | 0.00 | 0.00 | 0.00 | 57 | 1006.6 |
| 20260505040949 | 59 | 145 | 1.0 | 1.0 | 0.00 | 0.00 | 0.00 | 57 | 1006.5 |
| 20260505040446 | 59 | 201 | 2.0 | 2.0 | 0.00 | 0.00 | 0.00 | 57 | 1006.8 |
| 20260505035943 | 59 | 253 | 3.0 | 4.0 | 0.00 | 0.00 | 0.00 | 56 | 1006.7 |
| 20260505035439 | 59 | 178 | 1.0 | 1.0 | 0.00 | 0.00 | 0.00 | 57 | 1006.7 |
| 20260505034936 | 59 | 164 | 0.0 | 1.0 | 0.00 | 0.00 | 0.00 | 55 | 1006.7 |
| 20260505034432 | 59 | 224 | 0.0 | 1.0 | 0.00 | 0.00 | 0.00 | 56 | 1006.8 |
| 20260505033930 | 59 | 186 | 2.0 | 3.0 | 0.00 | 0.00 | 0.00 | 55 | 1006.4 |
| 20260505033426 | 59 | 210 | 2.0 | 2.0 | 0.00 | 0.00 | 0.00 | 56 | 1006.5 |
| 20260505032924 | 60 | 184 | 2.0 | 3.0 | 0.00 | 0.00 | 0.00 | 55 | 1006.5 |
| 20260505032421 | 60 | 279 | 4.0 | 6.0 | 0.00 | 0.00 | 0.00 | 53 | 1006.8 |
| 20260505031918 | 60 | 202 | 2.0 | 3.0 | 0.00 | 0.00 | 0.00 | 53 | 1006.8 |
| 20260505031415 | 60 | 270 | 6.0 | 13.0 | 0.00 | 0.00 | 0.00 | 53 | 1006.7 |
| 20260505030912 | 60 | 274 | 2.0 | 3.0 | 0.00 | 0.00 | 0.00 | 52 | 1006.8 |
| 20260505030408 | 60 | 204 | 2.0 | 4.0 | 0.00 | 0.00 | 0.00 | 53 | 1006.8 |
| 20260505025903 | 60 | 155 | 1.0 | 1.0 | 0.00 | 0.00 | 0.00 | 54 | 1006.7 |
| 20260505025401 | 60 | 314 | 5.0 | 7.0 | 0.00 | 0.00 | 0.00 | 52 | 1006.7 |
| 20260505024900 | 60 | 247 | 3.0 | 3.0 | 0.00 | 0.00 | 0.00 | 52 | 1007.0 |
| 20260505024357 | 60 | 232 | 3.0 | 4.0 | 0.00 | 0.00 | 0.00 | 52 | 1006.9 |
| 20260505023853 | 60 | 201 | 1.0 | 2.0 | 0.00 | 0.00 | 0.00 | 53 | 1007.0 |
| 20260505023351 | 60 | 224 | 6.0 | 8.0 | 0.00 | 0.00 | 0.00 | 52 | 1007.0 |
| 20260505022848 | 60 | 205 | 2.0 | 3.0 | 0.00 | 0.00 | 0.00 | 52 | 1007.0 |
| 20260505022345 | 60 | 206 | 2.0 | 3.0 | 0.00 | 0.00 | 0.00 | 54 | 1007.0 |
| 20260505021842 | 60 | 173 | 1.0 | 1.0 | 0.00 | 0.00 | 0.00 | 54 | 1007.3 |
| 20260505021338 | 59 | 144 | 1.0 | 1.0 | 0.00 | 0.00 | 0.00 | 55 | 1007.2 |
| 20260505020834 | 59 | 178 | 2.0 | 2.0 | 0.00 | 0.00 | 0.00 | 55 | 1007.4 |
| 20260505020330 | 60 | 195 | 1.0 | 1.0 | 0.00 | 0.00 | 0.00 | 55 | 1007.2 |
| 20260505015827 | 60 | 174 | 3.0 | 3.0 | 0.00 | 0.00 | 0.00 | 54 | 1007.4 |
| 20260505015324 | 60 | 183 | 4.0 | 6.0 | 0.00 | 0.00 | 0.00 | 53 | 1007.4 |
| 20260505014821 | 60 | 186 | 1.0 | 1.0 | 0.00 | 0.00 | 0.00 | 54 | 1007.4 |
| 20260505014318 | 60 | 214 | 5.0 | 6.0 | 0.00 | 0.00 | 0.00 | 53 | 1007.3 |
| 20260505013815 | 60 | 204 | 0.0 | 0.0 | 0.00 | 0.00 | 0.00 | 54 | 1007.4 |
| 20260505013312 | 61 | 156 | 0.0 | 1.0 | 0.00 | 0.00 | 0.00 | 55 | 1007.3 |
| 20260505012811 | 60 | 192 | 2.0 | 3.0 | 0.00 | 0.00 | 0.00 | 53 | 1007.3 |
| 20260505012308 | 61 | 171 | 1.0 | 2.0 | 0.00 | 0.00 | 0.00 | 52 | 1007.4 |
| 20260505011803 | 60 | 246 | 2.0 | 3.0 | 0.00 | 0.00 | 0.00 | 52 | 1007.4 |
| 20260505011301 | 60 | 116 | 1.0 | 2.0 | 0.00 | 0.00 | 0.00 | 52 | 1007.0 |
| 20260505010756 | 60 | 161 | 1.0 | 2.0 | 0.00 | 0.00 | 0.00 | 54 | 1006.9 |
| 20260505010253 | 60 | 170 | 1.0 | 2.0 | 0.00 | 0.00 | 0.00 | 53 | 1006.9 |
| 20260505005749 | 60 | 194 | 0.0 | 0.0 | 0.00 | 0.00 | 0.00 | 52 | 1006.7 |
| 20260505005246 | 61 | 290 | 2.0 | 2.0 | 0.00 | 0.00 | 0.00 | 50 | 1006.5 |
| 20260505004743 | 61 | 201 | 1.0 | 1.0 | 0.00 | 0.00 | 0.00 | 51 | 1006.4 |
| 20260505004239 | 61 | 213 | 0.0 | 1.0 | 0.00 | 0.00 | 0.00 | 52 | 1006.5 |
| 20260505003737 | 62 | 209 | 1.0 | 1.0 | 0.00 | 0.00 | 0.00 | 50 | 1006.5 |
| 20260505003234 | 61 | 216 | 2.0 | 2.0 | 0.00 | 0.00 | 0.00 | 48 | 1006.5 |
| 20260505002730 | 61 | 205 | 2.0 | 2.0 | 0.00 | 0.00 | 0.00 | 50 | 1006.5 |
| 20260505002228 | 62 | 168 | 1.0 | 1.0 | 0.00 | 0.00 | 0.00 | 51 | 1006.4 |
| 20260505001725 | 62 | 202 | 1.0 | 2.0 | 0.00 | 0.00 | 0.00 | 50 | 1006.4 |
| 20260505001223 | 63 | 206 | 2.0 | 2.0 | 0.00 | 0.00 | 0.00 | 47 | 1006.2 |
| 20260505000720 | 63 | 224 | 2.0 | 2.0 | 0.00 | 0.00 | 0.00 | 48 | 1006.2 |
| 20260505000218 | 62 | 205 | 2.0 | 3.0 | 0.00 | 0.00 | 0.00 | 47 | 1006.0 |
| 20260504235714 | 63 | 206 | 1.0 | 1.0 | 0.00 | 0.00 | 0.00 | 48 | 1005.9 |
| 20260504235210 | 63 | 99 | 4.0 | 4.0 | 0.00 | 0.00 | 0.00 | 46 | 1005.8 |
| 20260504234708 | 63 | 227 | 4.0 | 6.0 | 0.00 | 0.00 | 0.00 | 47 | 1005.9 |
| 20260504234204 | 64 | 192 | 0.0 | 1.0 | 0.00 | 0.00 | 0.00 | 47 | 1005.8 |
| 20260504233700 | 64 | 86 | 1.0 | 2.0 | 0.00 | 0.00 | 0.00 | 45 | 1005.8 |
| 20260504233156 | 65 | 182 | 1.0 | 2.0 | 0.00 | 0.00 | 0.00 | 46 | 1005.5 |
| 20260504232654 | 65 | 123 | 3.0 | 4.0 | 0.00 | 0.00 | 0.00 | 43 | 1005.6 |
| 20260504232151 | 65 | 180 | 0.0 | 1.0 | 0.00 | 0.00 | 0.00 | 44 | 1005.6 |
| 20260504231648 | 66 | 152 | 0.0 | 1.0 | 0.00 | 0.00 | 0.00 | 44 | 1005.5 |
| 20260504231144 | 66 | 221 | 1.0 | 2.0 | 0.00 | 0.00 | 0.00 | 43 | 1005.5 |
| 20260504230640 | 66 | 202 | 1.0 | 2.0 | 0.00 | 0.00 | 0.00 | 43 | 1005.4 |
| 20260504230139 | 67 | 180 | 2.0 | 2.0 | 0.00 | 0.00 | 0.00 | 43 | 1005.6 |
| 20260504225637 | 67 | 287 | 6.0 | 7.0 | 0.00 | 0.00 | 0.00 | 40 | 1005.4 |
| 20260504225133 | 67 | 186 | 4.0 | 4.0 | 0.00 | 0.00 | 0.00 | 39 | 1005.2 |
| 20260504224630 | 67 | 164 | 5.0 | 6.0 | 0.00 | 0.00 | 0.00 | 39 | 1005.4 |
| 20260504224127 | 68 | 225 | 3.0 | 4.0 | 0.00 | 0.00 | 0.00 | 40 | 1005.2 |
| 20260504223624 | 68 | 180 | 1.0 | 1.0 | 0.00 | 0.00 | 0.00 | 40 | 1005.0 |
| 20260504223120 | 69 | 190 | 2.0 | 2.0 | 0.00 | 0.00 | 0.00 | 39 | 1005.0 |
| 20260504222617 | 69 | 180 | 2.0 | 3.0 | 0.00 | 0.00 | 0.00 | 38 | 1005.1 |
| 20260504222114 | 68 | 39 | 1.0 | 1.0 | 0.00 | 0.00 | 0.00 | 40 | 1005.1 |
| 20260504221611 | 68 | 171 | 2.0 | 2.0 | 0.00 | 0.00 | 0.00 | 41 | 1005.2 |
| 20260504221108 | 68 | 239 | 2.0 | 2.0 | 0.00 | 0.00 | 0.00 | 37 | 1005.1 |
| 20260504220604 | 69 | 235 | 3.0 | 4.0 | 0.00 | 0.00 | 0.00 | 36 | 1005.2 |
| 20260504215558 | 69 | 167 | 2.0 | 3.0 | 0.00 | 0.00 | 0.00 | 36 | 1005.2 |
| 20260504215055 | 69 | 227 | 3.0 | 4.0 | 0.00 | 0.00 | 0.00 | 36 | 1005.3 |
| 20260504214551 | 69 | 229 | 2.0 | 2.0 | 0.00 | 0.00 | 0.00 | 36 | 1005.3 |
| 20260504214048 | 69 | 205 | 1.0 | 2.0 | 0.00 | 0.00 | 0.00 | 36 | 1005.4 |
| 20260504213544 | 68 | 181 | 4.0 | 6.0 | 0.00 | 0.00 | 0.00 | 37 | 1005.6 |
| 20260504213041 | 68 | 233 | 3.0 | 4.0 | 0.00 | 0.00 | 0.00 | 37 | 1005.6 |
| 20260504212537 | 67 | 183 | 2.0 | 2.0 | 0.00 | 0.00 | 0.00 | 38 | 1005.5 |
| 20260504212035 | 67 | 221 | 2.0 | 3.0 | 0.00 | 0.00 | 0.00 | 38 | 1005.7 |
| 20260504211531 | 68 | 297 | 1.0 | 1.0 | 0.00 | 0.00 | 0.00 | 39 | 1005.5 |
| 20260504211028 | 69 | 238 | 1.0 | 1.0 | 0.00 | 0.00 | 0.00 | 38 | 1005.3 |
| 20260504210525 | 68 | 217 | 3.0 | 3.0 | 0.00 | 0.00 | 0.00 | 36 | 1005.4 |
| 20260504210022 | 69 | 204 | 4.0 | 6.0 | 0.00 | 0.00 | 0.00 | 36 | 1005.7 |
| 20260504205520 | 70 | 227 | 3.0 | 6.0 | 0.00 | 0.00 | 0.00 | 35 | 1005.6 |
| 20260504205018 | 69 | 201 | 2.0 | 2.0 | 0.00 | 0.00 | 0.00 | 37 | 1005.5 |
| 20260504204515 | 69 | 225 | 2.0 | 2.0 | 0.00 | 0.00 | 0.00 | 38 | 1005.7 |
| 20260504204014 | 68 | 202 | 3.0 | 4.0 | 0.00 | 0.00 | 0.00 | 36 | 1005.6 |
| 20260504203512 | 68 | 233 | 1.0 | 2.0 | 0.00 | 0.00 | 0.00 | 38 | 1005.5 |
| 20260504203009 | 69 | 341 | 4.0 | 6.0 | 0.00 | 0.00 | 0.00 | 35 | 1005.6 |
| 20260504202504 | 71 | 57 | 2.0 | 3.0 | 0.00 | 0.00 | 0.00 | 34 | 1005.7 |
| 20260504202001 | 71 | 210 | 2.0 | 3.0 | 0.00 | 0.00 | 0.00 | 36 | 1005.7 |
| 20260504201458 | 73 | 227 | 3.0 | 3.0 | 0.00 | 0.00 | 0.00 | 35 | 1005.7 |
| 20260504200956 | 73 | 285 | 6.0 | 7.0 | 0.00 | 0.00 | 0.00 | 31 | 1006.1 |
| 20260504200453 | 73 | 223 | 3.0 | 4.0 | 0.00 | 0.00 | 0.00 | 32 | 1005.8 |
| 20260504195949 | 72 | 229 | 3.0 | 4.0 | 0.00 | 0.00 | 0.00 | 34 | 1005.6 |
| 20260504195445 | 70 | 208 | 2.0 | 2.0 | 0.00 | 0.00 | 0.00 | 36 | 1005.7 |
| 20260504194942 | 71 | 250 | 4.0 | 4.0 | 0.00 | 0.00 | 0.00 | 33 | 1005.8 |
| 20260504194438 | 69 | 220 | 1.0 | 1.0 | 0.00 | 0.00 | 0.00 | 35 | 1005.9 |
| 20260504193934 | 70 | 197 | 3.0 | 3.0 | 0.00 | 0.00 | 0.00 | 35 | 1006.0 |
| 20260504193431 | 69 | 179 | 4.0 | 6.0 | 0.00 | 0.00 | 0.00 | 36 | 1006.0 |
| 20260504192930 | 69 | 204 | 1.0 | 1.0 | 0.00 | 0.00 | 0.00 | 36 | 1006.1 |
| 20260504192427 | 69 | 227 | 2.0 | 2.0 | 0.00 | 0.00 | 0.00 | 36 | 1006.0 |
| 20260504191926 | 69 | 188 | 1.0 | 2.0 | 0.00 | 0.00 | 0.00 | 37 | 1006.1 |
| 20260504191424 | 68 | 231 | 2.0 | 3.0 | 0.00 | 0.00 | 0.00 | 35 | 1006.0 |
| 20260504190919 | 69 | 219 | 2.0 | 3.0 | 0.00 | 0.00 | 0.00 | 34 | 1006.3 |
| 20260504190414 | 69 | 358 | 1.0 | 1.0 | 0.00 | 0.00 | 0.00 | 36 | 1006.4 |
| 20260504185911 | 70 | 244 | 3.0 | 3.0 | 0.00 | 0.00 | 0.00 | 34 | 1006.2 |
| 20260504185409 | 68 | 227 | 3.0 | 4.0 | 0.00 | 0.00 | 0.00 | 36 | 1006.4 |
| 20260504184904 | 71 | 216 | 2.0 | 2.0 | 0.00 | 0.00 | 0.00 | 34 | 1006.3 |
| 20260504184400 | 68 | 213 | 1.0 | 1.0 | 0.00 | 0.00 | 0.00 | 38 | 1006.2 |
| 20260504183856 | 69 | 218 | 2.0 | 3.0 | 0.00 | 0.00 | 0.00 | 35 | 1006.4 |
| 20260504183354 | 69 | 86 | 3.0 | 6.0 | 0.00 | 0.00 | 0.00 | 33 | 1006.4 |
| 20260504182851 | 69 | 211 | 0.0 | 1.0 | 0.00 | 0.00 | 0.00 | 35 | 1006.3 |
| 20260504182349 | 71 | 328 | 6.0 | 7.0 | 0.00 | 0.00 | 0.00 | 34 | 1006.5 |
| 20260504181845 | 71 | 220 | 4.0 | 8.0 | 0.00 | 0.00 | 0.00 | 37 | 1006.7 |
| 20260504181343 | 69 | 222 | 1.0 | 2.0 | 0.00 | 0.00 | 0.00 | 36 | 1006.5 |
| 20260504180841 | 71 | 261 | 3.0 | 4.0 | 0.00 | 0.00 | 0.00 | 34 | 1006.7 |
| 20260504180339 | 70 | 233 | 4.0 | 4.0 | 0.00 | 0.00 | 0.00 | 34 | 1006.4 |
| 20260504175838 | 69 | 250 | 4.0 | 6.0 | 0.00 | 0.00 | 0.00 | 39 | 1006.5 |
| 20260504175334 | 69 | 212 | 1.0 | 2.0 | 0.00 | 0.00 | 0.00 | 37 | 1006.8 |
| 20260504174832 | 69 | 245 | 4.0 | 4.0 | 0.00 | 0.00 | 0.00 | 34 | 1006.7 |
| 20260504174329 | 68 | 43 | 2.0 | 4.0 | 0.00 | 0.00 | 0.00 | 36 | 1007.0 |
| 20260504173826 | 69 | 231 | 4.0 | 4.0 | 0.00 | 0.00 | 0.00 | 34 | 1006.8 |
| 20260504173323 | 70 | 343 | 2.0 | 3.0 | 0.00 | 0.00 | 0.00 | 34 | 1007.0 |
| 20260504172820 | 70 | 205 | 2.0 | 2.0 | 0.00 | 0.00 | 0.00 | 33 | 1007.2 |
| 20260504172316 | 70 | 210 | 4.0 | 8.0 | 0.00 | 0.00 | 0.00 | 33 | 1006.9 |
| 20260504171812 | 68 | 199 | 4.0 | 7.0 | 0.00 | 0.00 | 0.00 | 36 | 1006.9 |
| 20260504171310 | 69 | 357 | 6.0 | 8.0 | 0.00 | 0.00 | 0.00 | 36 | 1007.2 |
| 20260504170807 | 69 | 171 | 3.0 | 3.0 | 0.00 | 0.00 | 0.00 | 34 | 1007.3 |
| 20260504170304 | 68 | 345 | 5.0 | 7.0 | 0.00 | 0.00 | 0.00 | 38 | 1007.2 |
| 20260504160222 | 62 | 191 | 3.0 | 4.0 | 0.00 | 0.00 | 0.00 | 38 | 1008.3 |
| 20260504150653 | 63 | 262 | 3.0 | 4.0 | 0.00 | 0.00 | 0.00 | 42 | 1008.8 |
| 20260504150150 | 62 | 227 | 2.0 | 3.0 | 0.00 | 0.00 | 0.00 | 41 | 1008.8 |
| 20260504141119 | 57 | 219 | 3.0 | 4.0 | 0.00 | 0.00 | 0.00 | 46 | 1009.0 |
| 20260504140615 | 58 | 223 | 2.0 | 3.0 | 0.00 | 0.00 | 0.00 | 46 | 1009.0 |
| 20260504140111 | 58 | 279 | 3.0 | 4.0 | 0.00 | 0.00 | 0.00 | 46 | 1009.0 |
| 20260504130539 | 56 | 30 | 0.0 | 1.0 | 0.00 | 0.00 | 0.00 | 51 | 1009.8 |
| 20260504110427 | 42 | 148 | 0.0 | 0.0 | 0.00 | 0.00 | 0.00 | 76 | 1009.9 |